Regional Weather Roundup
Issued by NWS

Home | Current Version | Previous Version | Text Only | Print | Product List | Glossary On
Versions: 1 2 3 4 5 6 7 8 9 10 11 12 13 14 15 16 17 18 19 20 21 22 23 24 25 26 27 28 29 30 31 32 33 34 35 36 37 38 39 40 41 42 43 44 45 46 47 48 49 50
000
ASUS43 KBIS 021220
RWRND

NORTH DAKOTA REGIONAL WEATHER ROUNDUP
NATIONAL WEATHER SERVICE BISMARCK ND
700 AM CDT THU OCT 02 2014

NOTE: "FAIR" INDICATES FEW OR NO CLOUDS BELOW 12,000 FEET WITH NO
SIGNIFICANT WEATHER AND/OR OBSTRUCTIONS TO VISIBILITY.


NDZ001>003-009>011-017-021300-
NORTHWEST NORTH DAKOTA

CITY           SKY/WX    TMP DP  RH WIND       PRES   REMARKS
WILLISTON      PTCLDY    41  40  96 S6        29.82F
6HR MIN TEMP:  41; 6HR MAX TEMP:  45; 6HR PCP: TRACE;

MINOT          CLEAR     45  41  86 SW10      29.81F
MINOT AFB      MOCLDY    44  43  95 W6        29.81F
$$

NDZ018>021-031>035-040>046-021300-
SOUTHWEST NORTH DAKOTA

CITY           SKY/WX    TMP DP  RH WIND       PRES   REMARKS
BISMARCK       CLEAR     42  41  96 SW3       29.89S
6HR MIN TEMP:  38; 6HR MAX TEMP:  49;

DICKINSON      MOCLDY    38  34  85 SW3       29.88F
GARRISON         N/A     44  43  96 W8        29.85S
6HR MIN TEMP:  41; 6HR MAX TEMP:  46;

HETTINGER ARPT MOCLDY    36  33  89 NW3       29.93F
$$

NDZ004>008-012>016-024-026-027-054-021300-
NORTHEAST NORTH DAKOTA

CITY           SKY/WX    TMP DP  RH WIND       PRES   REMARKS
GRAND FORKS    CLOUDY    49  47  93 SW3       29.81R
GRND FRKS AFB  CLOUDY    49  49  99 W6        29.82R
DEVILS LAKE    MOCLDY    46  39  76 W9        29.80F
$$

NDZ022-023-025-028>030-036>039-047>053-021300-
SOUTHEAST NORTH DAKOTA

CITY           SKY/WX    TMP DP  RH WIND       PRES   REMARKS
FARGO          CLOUDY    47  44  90 W7        29.84R
6HR MIN TEMP:  47; 6HR MAX TEMP:  59;

JAMESTOWN      MOCLDY    47  44  90 W8        29.86R
$$




USA.gov is the U.S. government's official web portal to all federal, state and local government web resources and services.